| time (UTC) | temp F | wind direction | speed MPH | gust MPH | rain 1hr in | rain 24hr in | rain mn in | humidity % | barometer mb |
| 20260904023519 | 62 | 25 | 2.0 | 6.0 | 0.00 | 0.01 | 0.01 | 81 | 1008.4 |
| 20260904022520 | 61 | 23 | 2.0 | 5.0 | 0.00 | 0.01 | 0.01 | 82 | 1008.3 |
| 20260904021539 | 61 | 15 | 1.0 | 3.0 | 0.00 | 0.01 | 0.01 | 89 | 1008.1 |
| 20260904020520 | 61 | 332 | 1.0 | 3.0 | 0.00 | 0.01 | 0.01 | 89 | 1008.0 |
| 20260904015516 | 61 | 295 | 1.0 | 4.0 | 0.00 | 0.01 | 0.01 | 89 | 1008.0 |
| 20260904014537 | 61 | 287 | 1.0 | 2.0 | 0.00 | 0.01 | 0.01 | 90 | 1007.9 |
| 20260904013520 | 61 | 282 | 0.0 | 3.0 | 0.00 | 0.01 | 0.01 | 89 | 1007.8 |
| 20260904012520 | 61 | 0.0 | 0.0 | 0.00 | 0.01 | 0.01 | 88 | 1007.8 | |
| 20260904011517 | 61 | 274 | 0.0 | 2.0 | 0.01 | 0.01 | 0.01 | 87 | 1007.8 |
| 20260904010519 | 61 | 278 | 0.0 | 2.0 | 0.01 | 0.01 | 0.01 | 87 | 1007.6 |
| 20260904005559 | 61 | 279 | 0.0 | 2.0 | 0.01 | 0.07 | 0.01 | 88 | 1007.6 |
| 20260904004518 | 61 | 278 | 0.0 | 2.0 | 0.01 | 0.13 | 0.01 | 87 | 1007.5 |
| 20260904003521 | 61 | 0.0 | 0.0 | 0.01 | 0.13 | 0.01 | 89 | 1007.5 | |
| 20260904002518 | 61 | 0.0 | 0.0 | 0.01 | 0.13 | 0.01 | 89 | 1007.4 | |
| 20260904001620 | 62 | 205 | 0.0 | 1.0 | 0.00 | 0.13 | 0.00 | 87 | 1007.5 |
| 20260904000520 | 62 | 96 | 2.0 | 5.0 | 0.00 | 0.28 | 0.00 | 80 | 1007.3 |
| 20260903235519 | 62 | 71 | 0.0 | 4.0 | 0.00 | 0.28 | 0.00 | 80 | 1007.2 |
| 20260903234701 | 63 | 76 | 2.0 | 5.0 | 0.00 | 0.28 | 0.00 | 76 | 1007.1 |
| 20260903233518 | 64 | 352 | 1.0 | 3.0 | 0.00 | 0.28 | 0.00 | 73 | 1006.9 |
| 20260903232519 | 66 | 340 | 2.0 | 6.0 | 0.00 | 0.28 | 0.00 | 71 | 1006.9 |
| 20260903231519 | 67 | 346 | 0.0 | 3.0 | 0.00 | 0.28 | 0.00 | 73 | 1006.8 |
| 20260903230520 | 67 | 80 | 1.0 | 2.0 | 0.00 | 0.28 | 0.00 | 74 | 1006.7 |
| 20260903225541 | 66 | 286 | 0.0 | 2.0 | 0.00 | 0.28 | 0.00 | 76 | 1006.8 |
| 20260903224518 | 66 | 219 | 1.0 | 3.0 | 0.00 | 0.28 | 0.00 | 76 | 1006.8 |
| 20260903223517 | 65 | 0.0 | 0.0 | 0.00 | 0.28 | 0.00 | 80 | 1006.7 | |
| 20260903222520 | 64 | 182 | 0.0 | 2.0 | 0.00 | 0.28 | 0.00 | 81 | 1006.7 |
| 20260903221520 | 65 | 203 | 0.0 | 2.0 | 0.00 | 0.28 | 0.00 | 82 | 1006.7 |
| 20260903220559 | 65 | 15 | 1.0 | 5.0 | 0.00 | 0.28 | 0.00 | 81 | 1006.8 |
| 20260903215519 | 64 | 24 | 0.0 | 2.0 | 0.00 | 0.28 | 0.00 | 79 | 1006.8 |
| 20260903214520 | 65 | 113 | 1.0 | 4.0 | 0.00 | 0.28 | 0.00 | 80 | 1006.8 |
| 20260903213518 | 66 | 13 | 0.0 | 1.0 | 0.00 | 0.28 | 0.00 | 79 | 1006.7 |
| 20260903212520 | 65 | 164 | 0.0 | 2.0 | 0.00 | 0.28 | 0.00 | 78 | 1006.7 |
| 20260903211519 | 65 | 234 | 1.0 | 3.0 | 0.00 | 0.28 | 0.00 | 79 | 1006.8 |
| 20260903210521 | 65 | 193 | 0.0 | 2.0 | 0.00 | 0.28 | 0.00 | 79 | 1006.8 |
| 20260903205517 | 64 | 185 | 0.0 | 2.0 | 0.00 | 0.28 | 0.00 | 83 | 1006.8 |
| 20260903204538 | 63 | 153 | 0.0 | 2.0 | 0.00 | 0.28 | 0.00 | 83 | 1006.8 |
| 20260903203516 | 63 | 170 | 0.0 | 1.0 | 0.00 | 0.28 | 0.00 | 83 | 1007.0 |
| 20260903202519 | 63 | 185 | 0.0 | 1.0 | 0.00 | 0.28 | 0.00 | 84 | 1007.0 |
| 20260903201518 | 63 | 198 | 1.0 | 3.0 | 0.00 | 0.28 | 0.00 | 81 | 1007.0 |
| 20260903200520 | 64 | 308 | 1.0 | 3.0 | 0.00 | 0.28 | 0.00 | 77 | 1007.0 |
| 20260903195517 | 63 | 4 | 1.0 | 3.0 | 0.00 | 0.28 | 0.00 | 79 | 1006.9 |
| 20260903194517 | 62 | 15 | 0.0 | 4.0 | 0.00 | 0.28 | 0.00 | 80 | 1006.9 |
| 20260903193517 | 62 | 252 | 1.0 | 5.0 | 0.00 | 0.28 | 0.00 | 80 | 1006.9 |
| 20260903192519 | 61 | 241 | 1.0 | 5.0 | 0.00 | 0.28 | 0.00 | 82 | 1006.9 |
| 20260903191520 | 60 | 241 | 2.0 | 5.0 | 0.00 | 0.28 | 0.00 | 83 | 1006.9 |
| 20260903190518 | 60 | 221 | 2.0 | 5.0 | 0.00 | 0.28 | 0.00 | 83 | 1007.0 |
| 20260903185518 | 59 | 236 | 2.0 | 4.0 | 0.00 | 0.28 | 0.00 | 83 | 1007.0 |
| 20260903184520 | 59 | 276 | 2.0 | 5.0 | 0.00 | 0.28 | 0.00 | 84 | 1007.1 |
| 20260903183540 | 58 | 230 | 0.0 | 2.0 | 0.00 | 0.28 | 0.00 | 86 | 1007.1 |
| 20260903182518 | 57 | 243 | 2.0 | 5.0 | 0.00 | 0.28 | 0.00 | 87 | 1007.1 |
| 20260903181540 | 57 | 278 | 2.0 | 4.0 | 0.00 | 0.28 | 0.00 | 88 | 1007.0 |
| 20260903180542 | 57 | 317 | 2.0 | 3.0 | 0.00 | 0.28 | 0.00 | 87 | 1007.1 |
| 20260903175521 | 57 | 325 | 2.0 | 3.0 | 0.00 | 0.28 | 0.00 | 88 | 1007.2 |
| 20260903174521 | 57 | 313 | 1.0 | 3.0 | 0.00 | 0.28 | 0.00 | 90 | 1007.2 |
| 20260903173521 | 56 | 337 | 2.0 | 3.0 | 0.00 | 0.28 | 0.00 | 86 | 1007.1 |
| 20260903172521 | 56 | 356 | 3.0 | 4.0 | 0.00 | 0.28 | 0.00 | 87 | 1007.1 |
| 20260903171543 | 56 | 353 | 2.0 | 3.0 | 0.00 | 0.28 | 0.00 | 88 | 1007.1 |
| 20260903170523 | 56 | 9 | 2.0 | 4.0 | 0.00 | 0.28 | 0.00 | 87 | 1007.0 |
| 20260903165521 | 55 | 7 | 2.0 | 4.0 | 0.00 | 0.28 | 0.00 | 89 | 1006.9 |
| 20260903164523 | 55 | 5 | 2.0 | 3.0 | 0.00 | 0.28 | 0.00 | 90 | 1006.9 |
| 20260903163522 | 54 | 15 | 2.0 | 3.0 | 0.00 | 0.28 | 0.00 | 90 | 1006.9 |
| 20260903162544 | 54 | 6 | 0.0 | 2.0 | 0.00 | 0.28 | 0.00 | 91 | 1006.9 |
| 20260903161544 | 54 | 222 | 0.0 | 0.0 | 0.00 | 0.28 | 0.00 | 92 | 1006.9 |
| 20260903160543 | 54 | 17 | 1.0 | 3.0 | 0.00 | 0.28 | 0.00 | 90 | 1006.8 |
| 20260903155522 | 53 | 22 | 0.0 | 2.0 | 0.00 | 0.28 | 0.00 | 91 | 1006.7 |
| 20260903154544 | 53 | 26 | 1.0 | 3.0 | 0.00 | 0.28 | 0.00 | 92 | 1006.7 |
| 20260903153524 | 53 | 355 | 2.0 | 4.0 | 0.00 | 0.28 | 0.00 | 92 | 1006.7 |
| 20260903152523 | 52 | 356 | 0.0 | 2.0 | 0.00 | 0.28 | 0.00 | 94 | 1006.7 |
| 20260903151524 | 51 | 341 | 2.0 | 2.0 | 0.00 | 0.28 | 0.00 | 95 | 1006.6 |
| 20260903150523 | 51 | 320 | 2.0 | 2.0 | 0.00 | 0.28 | 0.00 | 95 | 1006.6 |
| 20260903145537 | 51 | 353 | 0.0 | 3.0 | 0.00 | 0.28 | 0.00 | 95 | 1006.5 |
| 20260903144520 | 51 | 329 | 2.0 | 3.0 | 0.00 | 0.28 | 0.00 | 95 | 1006.3 |
| 20260903143521 | 51 | 332 | 2.0 | 3.0 | 0.00 | 0.28 | 0.00 | 95 | 1006.3 |
| 20260903142517 | 51 | 355 | 2.0 | 3.0 | 0.00 | 0.28 | 0.00 | 95 | 1006.2 |
| 20260903141518 | 51 | 338 | 2.0 | 3.0 | 0.00 | 0.28 | 0.00 | 95 | 1006.0 |
| 20260903140519 | 51 | 315 | 2.0 | 3.0 | 0.00 | 0.28 | 0.00 | 95 | 1005.8 |
| 20260903135518 | 51 | 331 | 3.0 | 4.0 | 0.00 | 0.28 | 0.00 | 95 | 1005.8 |
| 20260903134520 | 51 | 333 | 3.0 | 4.0 | 0.00 | 0.28 | 0.00 | 94 | 1005.7 |
| 20260903133519 | 51 | 338 | 2.0 | 3.0 | 0.00 | 0.28 | 0.00 | 94 | 1005.7 |
| 20260903132541 | 51 | 329 | 2.0 | 3.0 | 0.00 | 0.28 | 0.00 | 94 | 1005.5 |
| 20260903131519 | 51 | 317 | 3.0 | 4.0 | 0.00 | 0.28 | 0.00 | 94 | 1005.4 |
| 20260903130519 | 51 | 325 | 2.0 | 4.0 | 0.00 | 0.28 | 0.00 | 95 | 1005.5 |
| 20260903125516 | 51 | 330 | 2.0 | 4.0 | 0.00 | 0.28 | 0.00 | 95 | 1005.5 |
| 20260903124520 | 52 | 284 | 1.0 | 2.0 | 0.00 | 0.28 | 0.00 | 95 | 1005.4 |
| 20260903123541 | 52 | 329 | 2.0 | 4.0 | 0.00 | 0.28 | 0.00 | 95 | 1005.2 |
| 20260903122522 | 52 | 339 | 3.0 | 3.0 | 0.00 | 0.28 | 0.00 | 94 | 1005.1 |
| 20260903121519 | 52 | 230 | 1.0 | 2.0 | 0.00 | 0.28 | 0.00 | 93 | 1005.0 |
| 20260903120517 | 53 | 345 | 3.0 | 4.0 | 0.00 | 0.28 | 0.00 | 92 | 1004.9 |
| 20260903115518 | 53 | 324 | 1.0 | 2.0 | 0.00 | 0.28 | 0.00 | 92 | 1005.0 |
| 20260903114622 | 53 | 279 | 0.0 | 0.0 | 0.00 | 0.28 | 0.00 | 91 | 1004.9 |
| 20260903113621 | 53 | 357 | 0.0 | 2.0 | 0.00 | 0.28 | 0.00 | 92 | 1004.8 |
| 20260903112517 | 53 | 0.0 | 0.0 | 0.00 | 0.28 | 0.00 | 91 | 1004.6 | |
| 20260903111518 | 54 | 329 | 0.0 | 2.0 | 0.00 | 0.28 | 0.00 | 91 | 1004.7 |
| 20260903110517 | 54 | 349 | 0.0 | 3.0 | 0.00 | 0.28 | 0.00 | 91 | 1004.6 |
| 20260903105519 | 54 | 0.0 | 0.0 | 0.00 | 0.28 | 0.00 | 90 | 1004.7 | |
| 20260903104518 | 54 | 9 | 0.0 | 2.0 | 0.00 | 0.28 | 0.00 | 90 | 1004.6 |
| 20260903103518 | 55 | 0.0 | 0.0 | 0.00 | 0.28 | 0.00 | 89 | 1004.5 | |
| 20260903102520 | 55 | 16 | 0.0 | 3.0 | 0.00 | 0.28 | 0.00 | 86 | 1004.4 |
| 20260903101520 | 55 | 18 | 2.0 | 5.0 | 0.00 | 0.28 | 0.00 | 85 | 1004.2 |
| 20260903100539 | 55 | 19 | 2.0 | 5.0 | 0.00 | 0.28 | 0.00 | 85 | 1004.1 |
| 20260903095519 | 55 | 18 | 2.0 | 6.0 | 0.00 | 0.28 | 0.00 | 85 | 1004.2 |
| 20260903094519 | 55 | 345 | 0.0 | 2.0 | 0.00 | 0.28 | 0.00 | 87 | 1004.2 |
| 20260903093519 | 55 | 0.0 | 0.0 | 0.00 | 0.28 | 0.00 | 89 | 1004.2 | |
| 20260903092519 | 55 | 0.0 | 0.0 | 0.00 | 0.28 | 0.00 | 88 | 1004.0 | |
| 20260903091520 | 55 | 306 | 0.0 | 3.0 | 0.00 | 0.28 | 0.00 | 87 | 1003.9 |
| 20260903090517 | 55 | 338 | 0.0 | 3.0 | 0.00 | 0.28 | 0.00 | 87 | 1003.9 |
| 20260903085540 | 55 | 348 | 1.0 | 3.0 | 0.00 | 0.28 | 0.00 | 88 | 1003.8 |
| 20260903084520 | 56 | 324 | 0.0 | 3.0 | 0.00 | 0.28 | 0.00 | 88 | 1003.8 |
| 20260903083520 | 56 | 343 | 1.0 | 4.0 | 0.00 | 0.28 | 0.00 | 88 | 1003.8 |
| 20260903082517 | 56 | 324 | 2.0 | 4.0 | 0.00 | 0.28 | 0.00 | 88 | 1003.7 |
| 20260903081518 | 56 | 339 | 1.0 | 3.0 | 0.00 | 0.28 | 0.00 | 89 | 1003.6 |
| 20260903080519 | 56 | 311 | 1.0 | 3.0 | 0.00 | 0.28 | 0.00 | 88 | 1003.6 |
| 20260903075538 | 56 | 328 | 1.0 | 4.0 | 0.00 | 0.28 | 0.00 | 87 | 1003.4 |
| 20260903074520 | 57 | 331 | 1.0 | 3.0 | 0.00 | 0.28 | 0.00 | 86 | 1003.2 |
| 20260903073518 | 57 | 330 | 0.0 | 2.0 | 0.00 | 0.28 | 0.00 | 84 | 1003.1 |
| 20260903072518 | 57 | 351 | 2.0 | 4.0 | 0.00 | 0.28 | 0.00 | 82 | 1002.9 |
| 20260903071520 | 57 | 345 | 2.0 | 6.0 | 0.00 | 0.28 | 0.00 | 84 | 1002.7 |
| 20260903070519 | 57 | 331 | 1.0 | 3.0 | 0.00 | 0.28 | 0.00 | 86 | 1002.6 |
| 20260903065519 | 57 | 334 | 0.0 | 2.0 | 0.00 | 0.28 | 0.28 | 88 | 1002.6 |
| 20260903064519 | 57 | 343 | 0.0 | 2.0 | 0.00 | 0.28 | 0.28 | 86 | 1002.7 |
| 20260903063540 | 57 | 348 | 1.0 | 4.0 | 0.00 | 0.28 | 0.28 | 87 | 1002.6 |
| 20260903062521 | 57 | 346 | 3.0 | 4.0 | 0.00 | 0.28 | 0.28 | 89 | 1003.1 |
| 20260903061517 | 57 | 321 | 2.0 | 3.0 | 0.00 | 0.28 | 0.28 | 88 | 1003.1 |
| 20260903060517 | 58 | 347 | 2.0 | 3.0 | 0.00 | 0.28 | 0.28 | 89 | 1002.8 |
| 20260903055520 | 58 | 327 | 2.0 | 4.0 | 0.00 | 0.28 | 0.28 | 88 | 1002.8 |
| 20260903054541 | 59 | 348 | 2.0 | 4.0 | 0.00 | 0.28 | 0.28 | 88 | 1002.7 |
| 20260903053518 | 59 | 321 | 1.0 | 2.0 | 0.00 | 0.28 | 0.28 | 87 | 1002.6 |
| 20260903052518 | 59 | 4 | 3.0 | 4.0 | 0.00 | 0.28 | 0.28 | 87 | 1002.6 |
| 20260903051518 | 59 | 341 | 2.0 | 3.0 | 0.00 | 0.28 | 0.28 | 88 | 1002.6 |
| 20260903050518 | 58 | 356 | 1.0 | 3.0 | 0.00 | 0.28 | 0.28 | 85 | 1002.5 |
| 20260903045520 | 58 | 342 | 3.0 | 6.0 | 0.00 | 0.28 | 0.28 | 88 | 1002.5 |
| 20260903044600 | 59 | 5 | 3.0 | 8.0 | 0.00 | 0.28 | 0.28 | 87 | 1002.1 |
| 20260903043519 | 59 | 36 | 3.0 | 7.0 | 0.00 | 0.28 | 0.28 | 87 | 1001.9 |
| 20260903042518 | 59 | 23 | 2.0 | 5.0 | 0.00 | 0.28 | 0.28 | 88 | 1001.8 |
| 20260903041518 | 60 | 38 | 3.0 | 6.0 | 0.00 | 0.28 | 0.28 | 88 | 1001.6 |
| 20260903040519 | 60 | 35 | 2.0 | 5.0 | 0.00 | 0.28 | 0.28 | 87 | 1001.5 |
| 20260903035519 | 60 | 55 | 1.0 | 4.0 | 0.00 | 0.28 | 0.28 | 85 | 1001.4 |
| 20260903034519 | 60 | 43 | 1.0 | 4.0 | 0.00 | 0.28 | 0.28 | 87 | 1001.3 |
| 20260903033519 | 59 | 16 | 0.0 | 2.0 | 0.00 | 0.28 | 0.28 | 90 | 1001.1 |
| 20260903032521 | 59 | 0.0 | 0.0 | 0.00 | 0.28 | 0.28 | 90 | 1001.0 | |
| 20260903031517 | 59 | 0.0 | 0.0 | 0.00 | 0.28 | 0.28 | 91 | 1001.0 | |
| 20260903030517 | 60 | 68 | 0.0 | 2.0 | 0.00 | 0.28 | 0.28 | 90 | 1000.8 |
| 20260903025520 | 61 | 148 | 0.0 | 3.0 | 0.00 | 0.28 | 0.28 | 88 | 1000.7 |
| 20260903024520 | 61 | 69 | 1.0 | 5.0 | 0.00 | 0.28 | 0.28 | 85 | 1000.6 |